{"data":{"norad_id":53450,"intl_designator":"2022-098G","name":"DONGPO 03","alt_names":[],"object_type":"PAYLOAD","status":"ACTIVE","operator":null,"country":"PRC","launch_date":"2022-08-10","launch_site_code":"TAISC","launch_vehicle":null,"mission":null,"orbit_class":"UNKNOWN","rcs_meters":null,"size_class":null,"mass_kg":null,"dimensions":null,"purposes":[],"wikipedia_slug":null,"has_3d_model":false,"image_url":null,"decayed_at":null,"tle_current":{"epoch":"2026-06-08T21:06:42.288768Z","epoch_age_seconds":9096487,"freshness":"OLD","line1":"1 53450U 22098G   26159.87965612  .06377175  26384-5  50878-3 0  9990","line2":"2 53450  97.5472 297.7915 0012929 266.8122  93.1698 16.39559397213888","mean_motion":16.39559397,"eccentricity":0.0012929,"inclination_deg":97.5472,"raan_deg":297.7915,"arg_perigee_deg":266.8122,"mean_anomaly_deg":93.1698,"bstar":0.00050878,"rev_number":21388,"period_min":87.828474078759,"perigee_km":158.51265839567,"apogee_km":175.4370085747,"semimajor_km":6545.1118334852,"source":"CELESTRAK","updated_at":"2026-06-11T09:00:13.013691Z"}}}